Concordia, KS

5:59 AM CST on November 20, 2019 (GMT -0600)
Blosser Municipal

Weather History for KCNK - September, 2019

Change the Weather History Date:

Friday, September 6, 2019

  Actual Average Record
Temperature  
Mean Temperature 75 °F 72 °F  
Max Temperature 85 °F 84 °F 103 °F (1939)
Min Temperature 64 °F 60 °F 42 °F (1956)
Degree Days  
Heating Degree Days 0 1  
Month to date heating degree days 0 4  
Since 1 July heating degree days 0 7  
Cooling Degree Days 10 8  
Month to date cooling degree days 79 51  
Year to date cooling degree days 1356 1217  
Growing Degree Days 25 (Base 50)    
Moisture  
Dew Point 64 °F    
Average Humidity 69    
Maximum Humidity 93    
Minimum Humidity 44    
Precipitation  
Precipitation 0.00 in 0.09 in 4.57 in (1946)
Month to date precipitation 0.00 0.57  
Year to date precipitation 28.84 21.67  
Snow  
Snow 0.00 in 0.00 in 0.00 in ()
Month to date snowfall 0.0 0.0  
Year to date snowfall 32.3 13.7  
Since 1 July snowfall 0.0 0.0  
Snow Depth 0.00 in    
Sea Level Pressure  
Sea Level Pressure 30.04 in    
Wind  
Wind Speed 9 mph (NE)    
Max Wind Speed 17 mph    
Max Gust Speed 25 mph    
Visibility 10 miles    
Events      
T = Trace of Precipitation, MM = Missing Value Source: NWS Daily Summary

Daily Weather History Graph

Daily Weather History Graph

Search for Another Location

Airport or City:

Astronomy

Sep. 06, 2019 Rise Set
Actual Time 7:03 AM CDT 7:53 PM CDT
Civil Twilight 6:35 AM CDT 8:21 PM CDT
Nautical Twilight 6:03 AM CDT 8:53 PM CDT
Astronomical Twilight 5:29 AM CDT 9:27 PM CDT
Moon 3:11 PM CDT (9/6) 12:14 AM CDT (9/6)
Length of Visible Light 13h 45m
Length of Day
12h 50m
First Quarter, 56% of the Moon is Illuminated
Sep 6
First Quarter
Sep 13
Full
Sep 21
Last Quarter
Sep 28
New
Oct 5
First Quarter

Hourly Weather History & Observations

Time (CDT) Temp. Heat Index Dew Point Humidity Pressure Visibility Wind Dir Wind Speed Gust Speed Precip Events Conditions
12:55 AM 75.0 °F - 66.0 °F 73% 29.95 in 10.0 mi West 4.6 mph - N/A   Clear
1:55 AM 72.0 °F - 66.0 °F 81% 29.94 in 10.0 mi South 10.4 mph - N/A   Clear
2:55 AM 73.9 °F - 64.0 °F 71% 29.95 in 10.0 mi NW 10.4 mph - N/A   Clear
3:55 AM 71.1 °F - 64.9 °F 81% 29.96 in 10.0 mi NNW 5.8 mph - N/A   Clear
4:55 AM 72.0 °F - 69.1 °F 91% 29.98 in 10.0 mi NNE 6.9 mph - N/A   Clear
5:55 AM 73.9 °F - 71.1 °F 91% 29.99 in 8.0 mi NNE 9.2 mph - N/A   Clear
6:55 AM 73.0 °F - 69.1 °F 87% 30.02 in 10.0 mi NNE 8.1 mph - N/A   Clear
7:55 AM 72.0 °F - 66.0 °F 81% 30.05 in 10.0 mi NNE 9.2 mph - N/A   Partly Cloudy
8:55 AM 73.0 °F - 64.9 °F 76% 30.07 in 10.0 mi NE 9.2 mph 21.9 mph N/A   Clear
9:55 AM 73.9 °F - 64.9 °F 73% 30.09 in 10.0 mi NNE 12.7 mph - N/A   Partly Cloudy
10:55 AM 78.1 °F - 64.0 °F 62% 30.10 in 10.0 mi NNE 12.7 mph - N/A   Clear
11:55 AM 80.1 °F 81.7 °F 64.0 °F 58% 30.09 in 10.0 mi NNE 13.8 mph - N/A   Clear
12:55 PM 79.0 °F - 63.0 °F 58% 30.10 in 10.0 mi NE 11.5 mph - N/A   Clear
1:55 PM 82.0 °F 82.7 °F 61.0 °F 49% 30.09 in 10.0 mi NE 11.5 mph 21.9 mph N/A   Clear
2:55 PM 84.0 °F 84.4 °F 61.0 °F 46% 30.07 in 10.0 mi NE 13.8 mph 20.7 mph N/A   Clear
3:55 PM 84.0 °F 84.5 °F 62.1 °F 47% 30.06 in 10.0 mi NE 12.7 mph - N/A   Clear
4:55 PM 84.0 °F 84.5 °F 62.1 °F 47% 30.04 in 10.0 mi NE 12.7 mph - N/A   Clear
5:55 PM 82.0 °F 82.7 °F 61.0 °F 49% 30.06 in 10.0 mi NE 9.2 mph - N/A   Clear
6:55 PM 79.0 °F - 60.1 °F 52% 30.06 in 10.0 mi NE 8.1 mph - N/A   Clear
7:55 PM 75.0 °F - 62.1 °F 64% 30.07 in 10.0 mi ENE 3.5 mph - N/A   Clear
8:55 PM 72.0 °F - 62.1 °F 71% 30.07 in 10.0 mi ENE 3.5 mph - N/A   Clear
9:55 PM 69.1 °F - 63.0 °F 81% 30.08 in 10.0 mi East 3.5 mph - N/A   Clear
10:55 PM 66.9 °F - 62.1 °F 84% 30.08 in 10.0 mi East 4.6 mph - N/A   Clear
11:55 PM 66.9 °F - 62.1 °F 84% 30.08 in 10.0 mi ENE 3.5 mph - N/A   Clear